Tracking 31027 objects as of 19-Jul-2025
HD Live streaming from Space Station
objects crossing your sky now

DELTA 1 DEB

Track DELTA 1 DEB now!
10-day predictions


NORAD ID: 15540
Int'l Code: 1976-077EU
Perigee: 1,378.5 km
Apogee: 2,292.2 km
Inclination: 102.7 °
Period: 123.3 minutes
Semi major axis: 8206 km
RCS: 0.045 m2 (small)
Launch date: July 29, 1976
Source: United States (US)
Launch site: AIR FORCE WESTERN TEST RANGE (AFWTR)

Note: This is SATELLITE DEBRIS
Your satellite tracking list
EUTE 33A (EB 3)
Track 1 satellite(s)




NASA's NSSDC Master Catalog

Two Line Element Set (TLE):
1 15540U 76077EU  25198.76930737  .00000458  00000-0  61123-2 0  9991
2 15540 102.6880 172.3159 0556664 198.7734 287.7993 11.67825756460004
Source of the keplerian elements: AFSPC